World > North America > United States > New Jersey

Aberdeen, New Jersey Regional Weather

Lat: 40.41N, Lon: 74.23W
Wx Zone: NJZ013
Feedback

Aberdeen, NJ Regional Weather

Expires:201909222100;;192803
ASUS41 KOKX 222013
RWROKX

Regional Weather Roundup
National Weather Service New York NY
400 PM EDT SUN SEP 22 2019

Note: "FAIR" indicates few or no clouds below 12,000 feet with no
significant weather and/or obstructions to visibility.


NJZ001-105-106-008-010-013-015-019>022-104-222100-
New Jersey
  
CITY           SKY/WX    TMP DP  RH WIND       PRES   REMARKS
Newark/Liberty PTSUNNY   86  63  45 SE12      30.04F                  
Teterboro      FAIR      88  63  43 S13       30.03F                  
Caldwell       FAIR      89  63  41 VRB7      30.05F HX  90           
Somerville     PTSUNNY   88  65  46 S6        30.03F HX  90           
Linden         FAIR     N/A N/A N/A CALM      30.04F                  
Perth Amboy      N/A     82 N/A N/A SE7         N/A                   
Sussex         FAIR      87  64  46 SW8       30.04F                  
Andover          N/A     86  65  49 SW7       30.06F                  
Trenton        FAIR      87  64  46 SW9       30.05F                  
Millville      FAIR      85  63  47 SE9       30.08F                  
Atlantic City  FAIR      83  66  56 S10       30.09F                  
Wrightstown    MOSUNNY   88  64  45 SW8       30.06                   
Toms River     FAIR      85  69  58 S12       30.08F                  
Belmar         FAIR      82  64  54 SE10      30.08F                  
$$
 

SKY/WX - Weather  TMP - Temperature  DP - Dew Point  RH - Relative Humidity
WIND - Wind Direction/Speed PRES - Barometric Pressure VSB - Visibility
WCI - Wind Chill Index E13G22 Wind - East Wind 13 mph/Gusts of 22 mph